Home > Weather > Germantown > Past weeks

Flag for USA Past Weather in Germantown, Maryland, USA — Yesterday and Last 2 Weeks

Now
90 °F

Sunny.


Feels Like: 90 °F
Forecast: 71 / 95 °F
Wind: No wind

Location: Frederick Municipal Airport

Current Time: Jul 24, 2016 at 12:48:13 PM

Latest Report: Jul 24, 2016 at 11:49 AM


Visibility: 10 mi

Pressure: 30.05 "Hg

Humidity: 38%

Dew Point: 61 °F

Location of GermantownLocation

Past Weather in Germantown — Graph

°F

Germantown Temperature Yesterday

Maximum temperature yesterday: 97 °F (at 3:47 PM)
Minimum temperature yesterday: 72 °F (at 12:30 AM)
Average temperature yesterday: 81 °F

High & Low Weather Summary for the Past Weeks

 TemperatureHumidityPressure
High97 °F (Jul 23, 3:47 PM)100% (Jul 10, 6:15 AM)30.27 "Hg (Jul 10, 6:15 AM)
Low57 °F (Jul 11, 5:35 AM)24% (Jul 17, 4:47 PM)29.81 "Hg (Jul 9, 4:50 PM)
Average75 °F81%30.06 "Hg
* Reported Jul 9 10:47 AM — Jul 24 10:50 AM, Germantown, Weather by CustomWeather, © 2016

Note: Actual official high and low records may vary slightly from our data, if they occured in-between our weather recording intervals... More about our weather records

Advertising

Germantown Weather History for the Previous 24 Hours

Scroll right to see more
 ConditionsComfort  
Time TempWeatherWind HumidityBarometerVisibility
10:50 AM
Sun, Jul 24
88 °FSunny.3 mph62%30.03 "Hg10 mi
9:47 AM84 °FSunny.No wind51%30.04 "Hg10 mi
8:50 AM81 °FSunny.No wind70%30.05 "Hg10 mi
7:47 AM73 °FSunny.No wind100%30.05 "Hg10 mi
6:47 AM72 °FPassing clouds.No wind100%30.03 "Hg10 mi
6:15 AM68 °FOvercast.No wind100%30.03 "Hg7 mi
5:55 AM68 °FFog.No wind100%30.02 "Hg4 mi
5:15 AM68 °FFog.No wind100%30.01 "Hg2 mi
4:55 AM68 °FFog.No wind100%30.01 "Hg1 mi
4:15 AM68 °FFog.No wind100%29.99 "Hg2 mi
3:55 AM68 °FFog.No wind100%29.99 "Hg1 mi
3:15 AM70 °FFog.No wind100%29.99 "Hg5 mi
2:50 AM70 °FFog.No wind100%29.99 "Hg4 mi
2:30 AM72 °FClear.3 mph100%29.98 "Hg7 mi
2:10 AM70 °FClear.No wind100%29.98 "Hg7 mi
1:50 AM70 °FFog.No wind100%29.98 "Hg5 mi
1:30 AM72 °FClear.No wind100%29.99 "Hg7 mi
1:10 AM73 °FClear.No wind100%29.98 "Hg10 mi
12:50 AM72 °FClear.No wind100%29.98 "Hg10 mi
12:30 AM73 °FClear.5 mph100%29.97 "Hg10 mi
12:10 AM73 °FClear.No wind100%29.97 "Hg10 mi
11:50 PM
Sat, Jul 23
73 °FClear.No wind100%29.97 "Hg10 mi
11:30 PM77 °FClear.No wind94%29.96 "Hg10 mi
11:10 PM77 °FClear.3 mph94%29.96 "Hg10 mi
10:50 PM77 °FClear.No wind94%29.95 "Hg10 mi
10:10 PM79 °FPassing clouds.No wind89%29.95 "Hg10 mi
9:50 PM79 °FPassing clouds.No wind84%29.94 "Hg10 mi
9:10 PM82 °FSunny.3 mph74%29.93 "Hg10 mi
8:50 PM82 °FSunny.3 mph74%29.92 "Hg10 mi
8:30 PM86 °FSunny.No wind62%29.92 "Hg10 mi
7:47 PM90 °FSunny.5 mph55%29.92 "Hg10 mi
6:55 PM90 °FPartly sunny.No wind55%29.91 "Hg10 mi
5:48 PM88 °FBroken clouds.7 mph52%29.91 "Hg10 mi
4:53 PM91 °FThundershowers. Scattered clouds.10 mph52%29.92 "Hg10 mi
3:47 PM97 °FSunny.7 mph44%29.92 "Hg10 mi
2:47 PM79 °FScattered clouds.13 mph84%29.94 "Hg10 mi
1:47 PM91 °FPartly sunny.9 mph56%29.95 "Hg10 mi
12:48 PM91 °FPartly sunny.6 mph56%29.97 "Hg10 mi
Weather by CustomWeather, © 2016

See weather overviewHow to use our weather pages